Home   Weather   Krefeld   Past weeks

Flag for Germany Past Weather in Krefeld, North Rhine-Westphalia, Germany — Yesterday and Last 2 Weeks

41 °F


Feels Like: 41 °F
Forecast: 45 / 55 °F
Wind: 1 mph from North

Location: Monchengladbach Airport

Current Time: Oct 23, 2016 at 10:25:23 PM

Latest Report: Oct 23, 2016 at 7:50 PM

Visibility: 2 mi

Pressure: 29.89 "Hg

Humidity: 93%

Dew Point: 39 °F

Location of KrefeldLocation

Past Weather in Krefeld — Graph


Krefeld Temperature Yesterday

Maximum temperature yesterday: 50 °F (at 4:20 PM)
Minimum temperature yesterday: 41 °F (at 7:50 PM)
Average temperature yesterday: 47 °F

High & Low Weather Summary for the Past Weeks

High66 °F (Oct 16, 3:20 PM)100% (Oct 11, 7:50 AM)30.30 "Hg (Oct 11, 7:50 AM)
Low34 °F (Oct 11, 7:50 AM)47% (Oct 9, 3:50 PM)29.68 "Hg (Oct 14, 7:50 PM)
Average50 °F81%30.03 "Hg
* Reported Oct 8 7:20 PM — Oct 23 7:50 PM, Krefeld, Weather by CustomWeather, © 2016

Note: Actual official high and low records may vary slightly from our data, if they occured in-between our weather recording intervals... More about our weather records


Krefeld Weather History for the Previous 24 Hours

Scroll right to see more
Time TempWeatherWind HumidityBarometerVisibility
7:50 PM
Sun, Oct 23
41 °FFog.1 mph93%29.89 "Hg2 mi
7:20 PM41 °FFog.2 mph93%29.89 "Hg2 mi
6:50 PM41 °FFog.3 mph100%29.89 "Hg2 mi
6:20 PM43 °FFog.3 mph93%29.89 "Hg1 mi
5:50 PM43 °FFog.2 mph100%29.89 "Hg2 mi
5:20 PM46 °FFog.3 mph93%29.89 "Hg2 mi
4:50 PM45 °FFog.5 mph100%29.89 "Hg2 mi
4:20 PM45 °FFog.3 mph100%29.89 "Hg2 mi
3:50 PM45 °FFog.3 mph100%29.89 "Hg2 mi
3:20 PM45 °FFog.5 mph100%29.92 "Hg2 mi
2:50 PM43 °FFog.5 mph100%29.92 "Hg1 mi
2:20 PM43 °FFog.7 mph100%29.92 "Hg1 mi
1:50 PM43 °FFog.7 mph100%29.92 "Hg1 mi
1:20 PM43 °FFog.6 mph93%29.92 "Hg1 mi
12:50 PM43 °FFog.7 mph93%29.92 "Hg1 mi
12:20 PM43 °FFog.8 mph93%29.92 "Hg1 mi
11:50 AM41 °FFog.6 mph100%29.92 "Hg1 mi
11:20 AM41 °FFog.7 mph100%29.95 "Hg1 mi
10:50 AM41 °FFog.6 mph93%29.95 "Hg1 mi
10:20 AM41 °FFog.6 mph93%29.95 "Hg0 mi
9:50 AM39 °FFog.5 mph100%29.95 "Hg0 mi
9:20 AM41 °FFog.3 mph93%29.95 "Hg0 mi
8:50 AM39 °FFog.3 mph100%29.92 "Hg0 mi
8:20 AM39 °FFog.3 mph93%29.92 "Hg0 mi
7:50 AM37 °FFog.No wind93%29.92 "Hg0 mi
Weather by CustomWeather, © 2016

See weather overviewHow to use our weather pages